Previsão horária em Bolshie Gory

Hoje, 8 Março, Segunda-feira

Tempo Temperatura Precipitação Vento Pressão Humidade
00:00 -15°C° 0 mm 6 m/s 743 mmHg 87%
01:00 -16°C° 0 mm 6 m/s 744 mmHg 87%
02:00 -16°C° 0 mm 6 m/s 745 mmHg 88%
03:00 -17°C° 0 mm 5 m/s 746 mmHg 89%
04:00 -18°C° 0 mm 5 m/s 747 mmHg 89%
05:00 -19°C° 0 mm 5 m/s 748 mmHg 90%
06:00 -20°C° 0 mm 5 m/s 748 mmHg 90%
07:00 -21°C° 0 mm 5 m/s 749 mmHg 90%
08:00 -20°C° 0 mm 4 m/s 750 mmHg 90%
09:00 -19°C° 0 mm 4 m/s 750 mmHg 89%
10:00 -18°C° 0 mm 4 m/s 751 mmHg 89%
11:00 -18°C° 0 mm 4 m/s 752 mmHg 88%
12:00 -16°C° 0 mm 3 m/s 752 mmHg 88%
13:00 -15°C° 0 mm 3 m/s 752 mmHg 87%
14:00 -15°C° 0 mm 3 m/s 753 mmHg 86%
15:00 -16°C° 0 mm 3 m/s 753 mmHg 88%
16:00 -17°C° 0 mm 3 m/s 754 mmHg 89%
17:00 -18°C° 0 mm 3 m/s 754 mmHg 90%
18:00 -19°C° 0 mm 3 m/s 754 mmHg 92%
19:00 -22°C° 0 mm 3 m/s 755 mmHg 93%
20:00 -23°C° 0 mm 3 m/s 755 mmHg 95%
21:00 -24°C° 0 mm 2 m/s 756 mmHg 95%
22:00 -25°C° 0 mm 2 m/s 756 mmHg 95%
23:00 -26°C° 0 mm 2 m/s 756 mmHg 96%

Amanhã, 9 Março, Terça-feira

Tempo Temperatura Precipitação Vento Pressão Humidade
00:00 -27°C° 0 mm 2 m/s 757 mmHg 96%
01:00 -28°C° 0 mm 2 m/s 757 mmHg 96%
02:00 -29°C° 0 mm 2 m/s 758 mmHg 96%
03:00 -29°C° 0 mm 2 m/s 758 mmHg 96%
04:00 -30°C° 0 mm 2 m/s 758 mmHg 96%
05:00 -31°C° 0 mm 2 m/s 758 mmHg 96%
06:00 -30°C° 0 mm 2 m/s 759 mmHg 95%
07:00 -30°C° 0 mm 2 m/s 759 mmHg 94%
08:00 -29°C° 0 mm 2 m/s 760 mmHg 93%
09:00 -27°C° 0 mm 2 m/s 760 mmHg 91%
10:00 -25°C° 0 mm 2 m/s 760 mmHg 90%
11:00 -23°C° 0 mm 2 m/s 761 mmHg 88%
12:00 -21°C° 0 mm 2 m/s 761 mmHg 87%
13:00 -20°C° 0 mm 2 m/s 761 mmHg 85%
14:00 -18°C° 0 mm 2 m/s 762 mmHg 84%
15:00 -19°C° 0 mm 2 m/s 762 mmHg 86%
16:00 -20°C° 0 mm 2 m/s 762 mmHg 89%
17:00 -20°C° 0 mm 2 m/s 762 mmHg 91%
18:00 -23°C° 0 mm 2 m/s 762 mmHg 92%
19:00 -24°C° 0 mm 2 m/s 763 mmHg 92%
20:00 -25°C° 0 mm 2 m/s 763 mmHg 93%
21:00 -26°C° 0 mm 2 m/s 764 mmHg 91%
22:00 -23°C° 0 mm 1 m/s 764 mmHg 90%
23:00 -24°C° 0 mm 1 m/s 764 mmHg 89%

Depois de amanhã, 10 Março, Quarta-feira

Tempo Temperatura Precipitação Vento Pressão Humidade
00:00 -24°C° 0 mm 1 m/s 764 mmHg 88%
01:00 -25°C° 0 mm 1 m/s 764 mmHg 86%
02:00 -25°C° 0 mm 0 m/s 764 mmHg 85%
03:00 -25°C° 0 mm 1 m/s 764 mmHg 84%
04:00 -25°C° 0 mm 1 m/s 765 mmHg 84%
05:00 -25°C° 0 mm 1 m/s 765 mmHg 83%
06:00 -23°C° 0 mm 1 m/s 765 mmHg 82%
07:00 -22°C° 0 mm 1 m/s 765 mmHg 82%
08:00 -21°C° 0 mm 1 m/s 765 mmHg 81%
09:00 -18°C° 0 mm 1 m/s 765 mmHg 78%
10:00 -16°C° 0 mm 1 m/s 765 mmHg 74%
11:00 -13°C° 0 mm 1 m/s 766 mmHg 71%
12:00 -12°C° 0 mm 1 m/s 766 mmHg 72%
13:00 -11°C° 0 mm 1 m/s 766 mmHg 74%
14:00 -10°C° 0 mm 1 m/s 765 mmHg 75%
15:00 -11°C° 0 mm 1 m/s 765 mmHg 79%
16:00 -12°C° 0 mm 1 m/s 765 mmHg 84%
17:00 -12°C° 0 mm 1 m/s 765 mmHg 88%
18:00 -14°C° 0 mm 1 m/s 765 mmHg 88%
19:00 -15°C° 0 mm 1 m/s 765 mmHg 88%
20:00 -17°C° 0 mm 1 m/s 765 mmHg 88%
21:00 -17°C° 0 mm 1 m/s 765 mmHg 87%
22:00 -18°C° 0 mm 1 m/s 765 mmHg 86%
23:00 -19°C° 0 mm 1 m/s 765 mmHg 85%

11 Março, Quinta-feira

Tempo Temperatura Precipitação Vento Pressão Humidade
00:00 -19°C° 0 mm 1 m/s 765 mmHg 85%
01:00 -19°C° 0 mm 1 m/s 765 mmHg 86%
02:00 -20°C° 0 mm 1 m/s 765 mmHg 86%
03:00 -20°C° 0 mm 1 m/s 764 mmHg 89%
04:00 -20°C° 0 mm 1 m/s 764 mmHg 91%
05:00 -23°C° 0 mm 2 m/s 764 mmHg 94%
06:00 -21°C° 0 mm 2 m/s 763 mmHg 94%
07:00 -21°C° 0 mm 2 m/s 763 mmHg 94%
08:00 -22°C° 0 mm 3 m/s 763 mmHg 93%
09:00 -19°C° 0 mm 3 m/s 762 mmHg 92%
10:00 -17°C° 0 mm 3 m/s 762 mmHg 91%
11:00 -15°C° 0 mm 3 m/s 762 mmHg 90%
12:00 -14°C° 0 mm 3 m/s 761 mmHg 86%
13:00 -14°C° 0 mm 4 m/s 760 mmHg 81%
14:00 -11°C° 0 mm 4 m/s 760 mmHg 77%
15:00 -12°C° 0 mm 4 m/s 759 mmHg 81%
16:00 -12°C° 0 mm 4 m/s 759 mmHg 85%
17:00 -12°C° 0 mm 4 m/s 758 mmHg 89%
18:00 -12°C° 0 mm 4 m/s 757 mmHg 89%
19:00 -14°C° 0 mm 4 m/s 757 mmHg 89%
20:00 -14°C° 0 mm 5 m/s 757 mmHg 89%
21:00 -14°C° 0 mm 4 m/s 756 mmHg 90%
22:00 -15°C° 0 mm 4 m/s 756 mmHg 90%
23:00 -15°C° 0 mm 4 m/s 756 mmHg 91%

12 Março, Sexta-feira

Tempo Temperatura Precipitação Vento Pressão Humidade
00:00 -16°C° 0 mm 4 m/s 755 mmHg 92%
01:00 -17°C° 0 mm 4 m/s 755 mmHg 93%
02:00 -17°C° 0 mm 4 m/s 754 mmHg 94%
03:00 -18°C° 0 mm 4 m/s 754 mmHg 95%
04:00 -19°C° 0 mm 4 m/s 753 mmHg 95%
05:00 -19°C° 0 mm 4 m/s 753 mmHg 95%
06:00 -18°C° 0 mm 4 m/s 752 mmHg 94%
07:00 -18°C° 0 mm 4 m/s 752 mmHg 93%
08:00 -18°C° 0 mm 5 m/s 751 mmHg 91%
09:00 -15°C° 0 mm 5 m/s 751 mmHg 89%
10:00 -13°C° 0 mm 5 m/s 750 mmHg 87%
11:00 -11°C° 0 mm 5 m/s 750 mmHg 84%
12:00 -10°C° 0 mm 5 m/s 749 mmHg 82%
13:00 -9°C° 0 mm 6 m/s 749 mmHg 80%
14:00 -8°C° 0 mm 6 m/s 748 mmHg 78%
15:00 -8°C° 0 mm 5 m/s 748 mmHg 82%
16:00 -10°C° 0 mm 5 m/s 747 mmHg 86%
17:00 -10°C° 0 mm 5 m/s 747 mmHg 89%
18:00 -11°C° 0 mm 5 m/s 747 mmHg 89%
19:00 -11°C° 0 mm 5 m/s 746 mmHg 89%
20:00 -12°C° 0 mm 5 m/s 746 mmHg 89%
21:00 -12°C° 0 mm 5 m/s 746 mmHg 89%
22:00 -13°C° 0 mm 5 m/s 746 mmHg 89%
23:00 -13°C° 0 mm 5 m/s 745 mmHg 90%

13 Março, Sábado

Tempo Temperatura Precipitação Vento Pressão Humidade
00:00 -13°C° 0 mm 5 m/s 745 mmHg 90%
01:00 -13°C° 0 mm 5 m/s 744 mmHg 90%
02:00 -13°C° 0 mm 5 m/s 744 mmHg 91%
03:00 -13°C° 0.1 mm 5 m/s 744 mmHg 91%
04:00 -13°C° 0.1 mm 5 m/s 744 mmHg 92%
05:00 -12°C° 0.1 mm 4 m/s 743 mmHg 92%
06:00 -12°C° 0.1 mm 4 m/s 743 mmHg 92%
07:00 -11°C° 0.1 mm 4 m/s 743 mmHg 92%
08:00 -11°C° 0.1 mm 4 m/s 743 mmHg 92%
09:00 -10°C° 0.1 mm 4 m/s 743 mmHg 92%
10:00 -9°C° 0.1 mm 4 m/s 744 mmHg 92%
11:00 -9°C° 0.1 mm 4 m/s 744 mmHg 92%
12:00 -8°C° 0.1 mm 4 m/s 744 mmHg 92%
13:00 -7°C° 0.1 mm 4 m/s 744 mmHg 92%
14:00 -5°C° 0.1 mm 3 m/s 744 mmHg 93%
15:00 -5°C° 0.1 mm 3 m/s 744 mmHg 94%
16:00 -4°C° 0.1 mm 3 m/s 744 mmHg 95%
17:00 -4°C° 0.1 mm 3 m/s 744 mmHg 96%
18:00 -4°C° 0.2 mm 3 m/s 744 mmHg 96%
19:00 -4°C° 0.2 mm 3 m/s 744 mmHg 97%
20:00 -4°C° 0.2 mm 3 m/s 744 mmHg 97%
21:00 -4°C° 0.1 mm 3 m/s 744 mmHg 97%
22:00 -2°C° 0.1 mm 3 m/s 745 mmHg 97%
23:00 -2°C° 0.1 mm 3 m/s 745 mmHg 97%
Mostrar mais